Powrót do katalogu

COSMOS 2247

AktywnyNawigacjaPO
NORAD 22648·PAYLOAD·🇷🇺 Russia

Wystrzelony May 11, 1993 z Plesetsk Cosmodrome

Loading…

Następne Przeloty (najbliższe 24 godziny)

TLE

ŚwieżeSource: Space-Track

Epoka: Sep 14, 2026, 11:39 UTC

1 22648U 93030C   26257.48544032  .00000017  00000-0  33316-4 0  9997
2 22648  82.5742 258.9275 0009418  94.8253  59.5484 12.63282165537357

Śledź COSMOS 2247 w czasie rzeczywistym z AllMySat

Download on the App Store